KINEIS-5C

Last updated on Mon Sep 21 2026 00:02:54 GMT+0000 (Coordinated Universal Time)

1 62081U 24219A 26263.61349411 .00000396 00000+0 70330-4 0 9997 2 62081 97.9154 59.8813 0003695 356.7313 3.3870 14.72320564 97796
UTC large
Height (km)
Speed (km/s)
/
Latitude / Longitude
Inclination (degrees)
Orbital Period (minutes)
Azimuth
Elevation
Range (km)
Doppler Factor

Next 0 passes for location: London (51.5072 / 0.1276)

No passes found over London.
KINEIS-5C